Volver al catálogo

CTC-1B

ActivoComunicacionesSSO
NORAD 66681·PAYLOAD·🇺🇸 United States
Este nombre de satélite aún no ha sido confirmado por fuentes oficiales.

Lanzado Nov 28, 2025 desde Vandenberg Space Force Base

Loading…

Próximos Pases (próximas 24 horas)

TLE

ActualizadoSource: Space-Track

Época: Sep 14, 2026, 10:27 UTC

1 66681U 25276R   26257.43576168  .00012795  00000-0  49244-3 0  9991
2 66681  97.4039 330.4680 0005903  71.3606 288.8273 15.26496997 44065

Sigue CTC-1B en tiempo real con AllMySat

Download on the App Store